,,Stat6,,Stat2,,Stat8,,Stat9,,Stat10,,Wind1,,Wind1,
time,status,PA1M_AVG,status,PR1M_SUM,status,RH1M_AVG,status,SR1M_AVG,status,TA1M_AVG,status,W1dAve1m,status,W1sAve1m,
2008-01-07, 00:00:00,VALID,919.729,VALID,0,VALID,99.1864,VALID,0,VALID,19.9716,VALID,232,VALID,0.439986,
2008-01-07, 00:01:00,VALID,919.724,VALID,0,VALID,99.3238,VALID,-0.0339617,VALID,19.9554,VALID,241,VALID,0.219512,
2008-01-07, 00:02:00,VALID,919.731,VALID,0,VALID,99.4369,VALID,-0.0509425,VALID,19.9427,VALID,240,VALID,0.00260417,
2008-01-07, 00:03:00,VALID,919.732,VALID,0,VALID,99.4509,VALID,-0.0679233,VALID,19.9135,VALID,239,VALID,0,
2008-01-07, 00:04:00,VALID,919.725,VALID,0,VALID,99.5616,VALID,-0.0339617,VALID,19.8872,VALID,239,VALID,0,
2008-01-07, 00:05:00,VALID,919.712,VALID,0,VALID,99.6277,VALID,-0.0339617,VALID,19.878,VALID,239,VALID,0,
2008-01-07, 00:06:00,VALID,919.695,VALID,0,VALID,99.6315,VALID,-0.0679233,VALID,19.8583,VALID,239,VALID,0,
2008-01-07, 00:07:00,VALID,919.673,VALID,0,VALID,99.6544,VALID,-0.0169808,VALID,19.8451,VALID,239,VALID,0,
2008-01-07, 00:08:00,VALID,919.653,VALID,0,VALID,99.676,VALID,-0.0339617,VALID,19.8421,VALID,239,VALID,0,
2008-01-07, 00:09:00,VALID,919.64,VALID,0,VALID,99.5959,VALID,-0.0339617,VALID,19.8288,VALID,239,VALID,0,
2008-01-07, 00:10:00,VALID,919.631,VALID,0,VALID,99.5806,VALID,-0.0509425,VALID,19.8189,VALID,239,VALID,0,
2008-01-07, 00:11:00,VALID,919.633,VALID,0,VALID,99.5488,VALID,0,VALID,19.8293,VALID,239,VALID,0,
2008-01-07, 00:12:00,VALID,919.635,VALID,0,VALID,99.4725,VALID,-0.0169808,VALID,19.8323,VALID,239,VALID,0,
2008-01-07, 00:13:00,VALID,919.634,VALID,0,VALID,99.2538,VALID,-0.0169808,VALID,19.8159,VALID,239,VALID,0,
2008-01-07, 00:14:00,VALID,919.622,VALID,0,VALID,99.1356,VALID,-0.0339617,VALID,19.8094,VALID,239,VALID,0,
2008-01-07, 00:15:00,VALID,919.616,VALID,0,VALID,98.9346,VALID,-0.0169808,VALID,19.7999,VALID,239,VALID,0,
2008-01-07, 00:16:00,VALID,919.602,VALID,0,VALID,98.8685,VALID,-0.0339617,VALID,19.7797,VALID,239,VALID,0,
2008-01-07, 00:17:00,VALID,919.599,VALID,0,VALID,98.824,VALID,-0.0339617,VALID,19.7864,VALID,239,VALID,0,
2008-01-07, 00:18:00,VALID,919.573,VALID,0,VALID,98.796,VALID,-0.0169808,VALID,19.7961,VALID,239,VALID,0,
2008-01-07, 00:19:00,VALID,919.561,VALID,0,VALID,98.6854,VALID,-0.0339617,VALID,19.7894,VALID,239,VALID,0,
2008-01-07, 00:20:00,VALID,919.556,VALID,0,VALID,98.7681,VALID,0,VALID,19.8126,VALID,239,VALID,0,
2008-01-07, 00:21:00,VALID,919.565,VALID,0,VALID,98.7821,VALID,-0.0169808,VALID,19.8288,VALID,239,VALID,0,
2008-01-07, 00:22:00,VALID,919.57,VALID,0,VALID,98.7045,VALID,0,VALID,19.8351,VALID,239,VALID,0,
2008-01-07, 00:23:00,VALID,919.55,VALID,0,VALID,98.6574,VALID,-0.0169808,VALID,19.8421,VALID,239,VALID,0,
2008-01-07, 00:24:00,VALID,919.544,VALID,0,VALID,98.6396,VALID,-0.0169808,VALID,19.8318,VALID,238,VALID,0,
2008-01-07, 00:25:00,VALID,919.533,VALID,0,VALID,98.6791,VALID,-0.0169808,VALID,19.8256,VALID,237,VALID,0,
2008-01-07, 00:26:00,VALID,919.534,VALID,0,VALID,98.7579,VALID,-0.0509425,VALID,19.8323,VALID,237,VALID,0,
2008-01-07, 00:27:00,VALID,919.506,VALID,0,VALID,98.7375,VALID,-0.0169808,VALID,19.8223,VALID,237,VALID,0,
2008-01-07, 00:28:00,VALID,919.493,VALID,0,VALID,98.7121,VALID,-0.0339617,VALID,19.8323,VALID,237,VALID,0,
2008-01-07, 00:29:00,VALID,919.477,VALID,0,VALID,98.6981,VALID,-0.0339617,VALID,19.8323,VALID,237,VALID,0,
2008-01-07, 00:30:00,VALID,919.467,VALID,0,VALID,98.6867,VALID,-0.0339617,VALID,19.8321,VALID,237,VALID,0,
2008-01-07, 00:31:00,VALID,919.469,VALID,0,VALID,98.6485,VALID,-0.0169808,VALID,19.8251,VALID,237,VALID,0,
2008-01-07, 00:32:00,VALID,919.47,VALID,0,VALID,98.6104,VALID,-0.0339617,VALID,19.8288,VALID,237,VALID,0,
2008-01-07, 00:33:00,VALID,919.465,VALID,0,VALID,98.4578,VALID,0,VALID,19.8029,VALID,237,VALID,0,
2008-01-07, 00:34:00,VALID,919.453,VALID,0,VALID,98.3853,VALID,-0.0339617,VALID,19.7639,VALID,237,VALID,0,
2008-01-07, 00:35:00,VALID,919.443,VALID,0,VALID,98.295,VALID,-0.0339617,VALID,19.6891,VALID,237,VALID,0,
2008-01-07, 00:36:00,VALID,919.424,VALID,0,VALID,98.4591,VALID,-0.0679233,VALID,19.6344,VALID,237,VALID,0,
2008-01-07, 00:37:00,VALID,919.425,VALID,0,VALID,98.5392,VALID,0,VALID,19.569,VALID,227,VALID,0,
2008-01-07, 00:38:00,VALID,919.409,VALID,0,VALID,98.7744,VALID,0,VALID,19.5261,VALID,200,VALID,0,
2008-01-07, 00:39:00,VALID,919.412,VALID,0,VALID,98.9512,VALID,0,VALID,19.5099,VALID,200,VALID,0.0213415,
2008-01-07, 00:40:00,VALID,919.41,VALID,0,VALID,99.1165,VALID,0,VALID,19.5171,VALID,199,VALID,0.475586,
2008-01-07, 00:41:00,VALID,919.41,VALID,0,VALID,99.2818,VALID,0,VALID,19.5236,VALID,199,VALID,0.540838,
2008-01-07, 00:42:00,VALID,919.407,VALID,0,VALID,99.3861,VALID,-0.0169808,VALID,19.5466,VALID,199,VALID,0.305233,
2008-01-07, 00:43:00,VALID,919.383,VALID,0,VALID,99.3581,VALID,-0.0509425,VALID,19.5595,VALID,199,VALID,0.276634,
2008-01-07, 00:44:00,VALID,919.365,VALID,0,VALID,99.3441,VALID,0,VALID,19.5491,VALID,198,VALID,0.625195,
2008-01-07, 00:45:00,VALID,919.326,VALID,0,VALID,99.367,VALID,-0.0339617,VALID,19.5493,VALID,198,VALID,0.714367,
2008-01-07, 00:46:00,VALID,919.308,VALID,0,VALID,99.4128,VALID,-0.0169808,VALID,19.5433,VALID,197,VALID,0.439596,
2008-01-07, 00:47:00,VALID,919.287,VALID,0,VALID,99.6251,VALID,-0.0169808,VALID,19.5463,VALID,196,VALID,0.439098,
2008-01-07, 00:48:00,VALID,919.275,VALID,0,VALID,99.6684,VALID,-0.0169808,VALID,19.5563,VALID,196,VALID,0.287538,
2008-01-07, 00:49:00,VALID,919.261,VALID,0,VALID,99.7675,VALID,0,VALID,19.5294,VALID,196,VALID,0,
2008-01-07, 00:50:00,VALID,919.252,VALID,0,VALID,99.882,VALID,-0.0169808,VALID,19.5229,VALID,196,VALID,0,
2008-01-07, 00:51:00,VALID,919.224,VALID,0,VALID,99.8464,VALID,0,VALID,19.5041,VALID,196,VALID,0,
2008-01-07, 00:52:00,VALID,919.195,VALID,0,VALID,99.7561,VALID,-0.0339617,VALID,19.4487,VALID,196,VALID,0,
2008-01-07, 00:53:00,VALID,919.174,VALID,0,VALID,99.8477,VALID,0,VALID,19.4071,VALID,196,VALID,0,
2008-01-07, 00:54:00,VALID,919.159,VALID,0,VALID,100,VALID,0,VALID,19.3906,VALID,196,VALID,0,
2008-01-07, 00:55:00,VALID,919.141,VALID,0,VALID,100,VALID,-0.0169808,VALID,19.3779,VALID,196,VALID,0,
2008-01-07, 00:56:00,VALID,919.129,VALID,0,VALID,100,VALID,-0.0509425,VALID,19.3454,VALID,196,VALID,0,
2008-01-07, 00:57:00,VALID,919.126,VALID,0,VALID,100,VALID,-0.0169808,VALID,19.3354,VALID,196,VALID,0,
2008-01-07, 00:58:00,VALID,919.119,VALID,0,VALID,100,VALID,-0.0169808,VALID,19.3422,VALID,196,VALID,0,
2008-01-07, 00:59:00,VALID,919.115,VALID,0,VALID,100,VALID,0,VALID,19.3487,VALID,196,VALID,0,
2008-01-07, 01:00:00,VALID,919.103,VALID,0,VALID,100,VALID,0,VALID,19.2993,VALID,196,VALID,0,
2008-01-07, 01:01:00,VALID,919.093,VALID,0,VALID,100,VALID,-0.0169808,VALID,19.2606,VALID,196,VALID,0,
2008-01-07, 01:02:00,VALID,919.086,VALID,0,VALID,100,VALID,-0.0339617,VALID,19.2444,VALID,196,VALID,0,
2008-01-07, 01:03:00,VALID,919.08,VALID,0,VALID,100,VALID,-0.0509425,VALID,19.2124,VALID,196,VALID,0,
2008-01-07, 01:04:00,VALID,919.063,VALID,0,VALID,100,VALID,-0.0169808,VALID,19.1855,VALID,135,VALID,0,
2008-01-07, 01:05:00,VALID,919.056,VALID,0,VALID,100,VALID,0,VALID,19.1827,VALID,73,VALID,0,
2008-01-07, 01:06:00,VALID,919.041,VALID,0,VALID,100,VALID,-0.0169808,VALID,19.1593,VALID,73,VALID,0,
2008-01-07, 01:07:00,VALID,919.036,VALID,0,VALID,100,VALID,0,VALID,19.147,VALID,73,VALID,0,
2008-01-07, 01:08:00,VALID,919.026,VALID,0,VALID,100,VALID,-0.0169808,VALID,19.1466,VALID,73,VALID,0,
2008-01-07, 01:09:00,VALID,919.023,VALID,0,VALID,100,VALID,0,VALID,19.1533,VALID,73,VALID,0,
2008-01-07, 01:10:00,VALID,919.003,VALID,0,VALID,100,VALID,0,VALID,19.1528,VALID,73,VALID,0,
2008-01-07, 01:11:00,VALID,918.997,VALID,0,VALID,100,VALID,0,VALID,19.1625,VALID,73,VALID,0,
2008-01-07, 01:12:00,VALID,918.986,VALID,0,VALID,100,VALID,-0.0509425,VALID,19.1962,VALID,73,VALID,0,
2008-01-07, 01:13:00,VALID,918.964,VALID,0,VALID,100,VALID,-0.101885,VALID,19.2354,VALID,73,VALID,0,
2008-01-07, 01:14:00,VALID,918.96,VALID,0,VALID,100,VALID,-0.101885,VALID,19.2646,VALID,73,VALID,0,
2008-01-07, 01:15:00,VALID,918.939,VALID,0,VALID,100,VALID,-0.101885,VALID,19.2908,VALID,73,VALID,0,
2008-01-07, 01:16:00,VALID,918.922,VALID,0,VALID,100,VALID,-0.101885,VALID,19.3202,VALID,73,VALID,0,
2008-01-07, 01:17:00,VALID,918.901,VALID,0,VALID,100,VALID,-0.0849042,VALID,19.3462,VALID,73,VALID,0,
2008-01-07, 01:18:00,VALID,918.883,VALID,0,VALID,100,VALID,-0.0849042,VALID,19.3492,VALID,73,VALID,0,
2008-01-07, 01:19:00,VALID,918.867,VALID,0,VALID,100,VALID,-0.0849042,VALID,19.3686,VALID,73,VALID,0,
2008-01-07, 01:20:00,VALID,918.862,VALID,0,VALID,100,VALID,-0.0679233,VALID,19.3881,VALID,73,VALID,0,
2008-01-07, 01:21:00,VALID,918.858,VALID,0,VALID,100,VALID,-0.101885,VALID,19.4043,VALID,73,VALID,0,
2008-01-07, 01:22:00,VALID,918.835,VALID,0,VALID,100,VALID,-0.101885,VALID,19.437,VALID,73,VALID,0,
2008-01-07, 01:23:00,VALID,918.837,VALID,0,VALID,100,VALID,-0.118866,VALID,19.4532,VALID,73,VALID,0,
2008-01-07, 01:24:00,VALID,918.821,VALID,0,VALID,100,VALID,-0.101885,VALID,19.456,VALID,73,VALID,0,
2008-01-07, 01:25:00,VALID,918.821,VALID,0,VALID,100,VALID,-0.0849042,VALID,19.4689,VALID,73,VALID,0,
2008-01-07, 01:26:00,VALID,918.813,VALID,0,VALID,100,VALID,-0.0849042,VALID,19.4689,VALID,73,VALID,0,
2008-01-07, 01:27:00,VALID,918.802,VALID,0,VALID,100,VALID,-0.0679233,VALID,19.4525,VALID,73,VALID,0,
2008-01-07, 01:28:00,VALID,918.791,VALID,0,VALID,100,VALID,-0.0849042,VALID,19.456,VALID,73,VALID,0,
2008-01-07, 01:29:00,VALID,918.764,VALID,0,VALID,99.987,VALID,-0.0679233,VALID,19.4689,VALID,73,VALID,0,
2008-01-07, 01:30:00,VALID,918.756,VALID,0,VALID,99.8909,VALID,-0.0849042,VALID,19.4819,VALID,73,VALID,0,
2008-01-07, 01:31:00,VALID,918.744,VALID,0,VALID,99.7663,VALID,-0.0339617,VALID,19.4852,VALID,73,VALID,0,
2008-01-07, 01:32:00,VALID,918.734,VALID,0,VALID,99.5959,VALID,-0.0849042,VALID,19.4625,VALID,73,VALID,0,
2008-01-07, 01:33:00,VALID,918.721,VALID,0,VALID,99.5933,VALID,-0.0509425,VALID,19.4363,VALID,73,VALID,0,
2008-01-07, 01:34:00,VALID,918.715,VALID,0,VALID,99.648,VALID,-0.101885,VALID,19.4437,VALID,73,VALID,0,
2008-01-07, 01:35:00,VALID,918.7,VALID,0,VALID,99.6633,VALID,-0.0849042,VALID,19.4333,VALID,73,VALID,0,
2008-01-07, 01:36:00,VALID,918.673,VALID,0,VALID,99.6213,VALID,-0.0849042,VALID,19.43,VALID,73,VALID,0,
2008-01-07, 01:37:00,VALID,918.673,VALID,0,VALID,99.559,VALID,-0.0849042,VALID,19.4208,VALID,73,VALID,0,
2008-01-07, 01:38:00,VALID,918.67,VALID,0,VALID,99.5743,VALID,-0.0679233,VALID,19.3878,VALID,73,VALID,0,
2008-01-07, 01:39:00,VALID,918.659,VALID,0,VALID,99.5883,VALID,-0.0679233,VALID,19.3684,VALID,73,VALID,0,
2008-01-07, 01:40:00,VALID,918.662,VALID,0,VALID,99.6099,VALID,-0.0339617,VALID,19.3654,VALID,73,VALID,0,
2008-01-07, 01:41:00,VALID,918.65,VALID,0,VALID,99.6251,VALID,-0.0679233,VALID,19.3487,VALID,73,VALID,0,
2008-01-07, 01:42:00,VALID,918.644,VALID,0,VALID,99.5794,VALID,-0.0679233,VALID,19.3357,VALID,73,VALID,0,
2008-01-07, 01:43:00,VALID,918.62,VALID,0,VALID,99.5018,VALID,0.0679233,VALID,19.3023,VALID,73,VALID,0,
2008-01-07, 01:44:00,VALID,918.607,VALID,0,VALID,99.4865,VALID,0.0339617,VALID,19.2758,VALID,73,VALID,0,
2008-01-07, 01:45:00,VALID,918.591,VALID,0,VALID,99.4916,VALID,0.0339617,VALID,19.2536,VALID,73,VALID,0,
2008-01-07, 01:46:00,VALID,918.568,VALID,0,VALID,99.5247,VALID,0.0509425,VALID,19.2307,VALID,73,VALID,0,
2008-01-07, 01:47:00,VALID,918.555,VALID,0,VALID,99.5603,VALID,0,VALID,19.208,VALID,73,VALID,0,
2008-01-07, 01:48:00,VALID,918.543,VALID,0,VALID,99.5641,VALID,0.0339617,VALID,19.2015,VALID,73,VALID,0,
2008-01-07, 01:49:00,VALID,918.533,VALID,0,VALID,99.6086,VALID,0,VALID,19.1885,VALID,73,VALID,0,
2008-01-07, 01:50:00,VALID,918.52,VALID,0,VALID,99.6518,VALID,0.0339617,VALID,19.1852,VALID,73,VALID,0,
2008-01-07, 01:51:00,VALID,918.514,VALID,0,VALID,99.5476,VALID,0.0509425,VALID,19.1788,VALID,73,VALID,0,
2008-01-07, 01:52:00,VALID,918.492,VALID,0,VALID,99.3848,VALID,0.0679233,VALID,19.1333,VALID,73,VALID,0,
2008-01-07, 01:53:00,VALID,918.489,VALID,0,VALID,99.3759,VALID,0.0339617,VALID,19.0912,VALID,73,VALID,0,
2008-01-07, 01:54:00,VALID,918.475,VALID,0,VALID,99.4636,VALID,0.0509425,VALID,19.065,VALID,73,VALID,0,
2008-01-07, 01:55:00,VALID,918.444,VALID,0,VALID,99.4293,VALID,0.0339617,VALID,19.0295,VALID,73,VALID,0,
2008-01-07, 01:56:00,VALID,918.431,VALID,0,VALID,99.5043,VALID,0.0509425,VALID,18.9976,VALID,73,VALID,0,
2008-01-07, 01:57:00,VALID,918.431,VALID,0,VALID,99.6506,VALID,0.0169808,VALID,18.9654,VALID,73,VALID,0,
2008-01-07, 01:58:00,VALID,918.426,VALID,0,VALID,99.8604,VALID,-0.0849042,VALID,18.9564,VALID,73,VALID,0,
2008-01-07, 01:59:00,VALID,918.43,VALID,0,VALID,99.9753,VALID,-0.0679233,VALID,18.9464,VALID,73,VALID,0.300037,
2008-01-07, 02:00:00,VALID,918.431,VALID,0,VALID,100,VALID,-0.0679233,VALID,18.9374,VALID,73,VALID,0.249479,
2008-01-07, 02:01:00,VALID,918.438,VALID,0,VALID,100,VALID,-0.0509425,VALID,18.9791,VALID,73,VALID,0,
2008-01-07, 02:02:00,VALID,918.438,VALID,0,VALID,100,VALID,-0.0509425,VALID,19.0148,VALID,73,VALID,0,
2008-01-07, 02:03:00,VALID,918.433,VALID,0,VALID,100,VALID,-0.0509425,VALID,19.0405,VALID,73,VALID,0,
2008-01-07, 02:04:00,VALID,918.411,VALID,0,VALID,100,VALID,-0.0679233,VALID,19.0796,VALID,73,VALID,0,
2008-01-07, 02:05:00,VALID,918.367,VALID,0,VALID,100,VALID,-0.0679233,VALID,19.0991,VALID,73,VALID,0,
2008-01-07, 02:06:00,VALID,918.356,VALID,0,VALID,100,VALID,-0.101885,VALID,19.1318,VALID,73,VALID,0,
2008-01-07, 02:07:00,VALID,918.334,VALID,0,VALID,100,VALID,-0.101885,VALID,19.1543,VALID,73,VALID,0,
2008-01-07, 02:08:00,VALID,918.304,VALID,0,VALID,100,VALID,-0.0509425,VALID,19.1573,VALID,73,VALID,0,
2008-01-07, 02:09:00,VALID,918.294,VALID,0,VALID,100,VALID,-0.0849042,VALID,19.1607,VALID,73,VALID,0,
2008-01-07, 02:10:00,VALID,918.293,VALID,0,VALID,100,VALID,-0.0339617,VALID,19.1705,VALID,73,VALID,0,
2008-01-07, 02:11:00,VALID,918.263,VALID,0,VALID,100,VALID,-0.0509425,VALID,19.1957,VALID,73,VALID,0,
2008-01-07, 02:12:00,VALID,918.249,VALID,0,VALID,100,VALID,-0.0509425,VALID,19.2346,VALID,73,VALID,0,
2008-01-07, 02:13:00,VALID,918.232,VALID,0,VALID,100,VALID,0,VALID,19.2469,VALID,73,VALID,0,
2008-01-07, 02:14:00,VALID,918.223,VALID,0,VALID,100,VALID,-0.0169808,VALID,19.2801,VALID,73,VALID,0,
2008-01-07, 02:15:00,VALID,918.202,VALID,0,VALID,100,VALID,0,VALID,19.2728,VALID,73,VALID,0,
2008-01-07, 02:16:00,VALID,918.18,VALID,0,VALID,100,VALID,0.0169808,VALID,19.2793,VALID,73,VALID,0,
2008-01-07, 02:17:00,VALID,918.173,VALID,0,VALID,100,VALID,-0.0169808,VALID,19.2828,VALID,73,VALID,0,
2008-01-07, 02:18:00,VALID,918.158,VALID,0,VALID,100,VALID,0,VALID,19.2636,VALID,73,VALID,0,
2008-01-07, 02:19:00,VALID,918.159,VALID,0,VALID,100,VALID,0,VALID,19.2569,VALID,73,VALID,0,
2008-01-07, 02:20:00,VALID,918.152,VALID,0,VALID,100,VALID,-0.0169808,VALID,19.2469,VALID,73,VALID,0,
2008-01-07, 02:21:00,VALID,918.147,VALID,0,VALID,100,VALID,-0.0679233,VALID,19.2601,VALID,73,VALID,0,
2008-01-07, 02:22:00,VALID,918.137,VALID,0,VALID,100,VALID,-0.0339617,VALID,19.2666,VALID,73,VALID,0,
2008-01-07, 02:23:00,VALID,918.127,VALID,0,VALID,100,VALID,-0.0169808,VALID,19.2793,VALID,73,VALID,0,
2008-01-07, 02:24:00,VALID,918.119,VALID,0,VALID,100,VALID,-0.0339617,VALID,19.2958,VALID,73,VALID,0,
2008-01-07, 02:25:00,VALID,918.109,VALID,0,VALID,100,VALID,-0.0509425,VALID,19.286,VALID,73,VALID,0,
2008-01-07, 02:26:00,VALID,918.102,VALID,0,VALID,100,VALID,-0.0169808,VALID,19.2633,VALID,73,VALID,0,
2008-01-07, 02:27:00,VALID,918.093,VALID,0,VALID,100,VALID,0,VALID,19.2177,VALID,73,VALID,0,
2008-01-07, 02:28:00,VALID,918.068,VALID,0,VALID,100,VALID,-0.0339617,VALID,19.1917,VALID,73,VALID,0,
2008-01-07, 02:29:00,VALID,918.062,VALID,0,VALID,100,VALID,0,VALID,19.172,VALID,73,VALID,0,
2008-01-07, 02:30:00,VALID,918.047,VALID,0,VALID,100,VALID,-0.0169808,VALID,19.1595,VALID,73,VALID,0,
2008-01-07, 02:31:00,VALID,918.05,VALID,0,VALID,100,VALID,-0.0509425,VALID,19.1333,VALID,73,VALID,0,
2008-01-07, 02:32:00,VALID,918.039,VALID,0,VALID,100,VALID,-0.0679233,VALID,19.1141,VALID,134,VALID,0,
2008-01-07, 02:33:00,VALID,918.045,VALID,0,VALID,100,VALID,0,VALID,19.1209,VALID,149,VALID,0,
2008-01-07, 02:34:00,VALID,918.052,VALID,0,VALID,100,VALID,-0.0339617,VALID,19.1174,VALID,159,VALID,0,
2008-01-07, 02:35:00,VALID,918.033,VALID,0,VALID,100,VALID,-0.0169808,VALID,19.1109,VALID,159,VALID,0,
2008-01-07, 02:36:00,VALID,918.035,VALID,0,VALID,100,VALID,-0.0509425,VALID,19.0849,VALID,159,VALID,0,
2008-01-07, 02:37:00,VALID,918.019,VALID,0,VALID,100,VALID,-0.0339617,VALID,19.0784,VALID,160,VALID,0.288154,
2008-01-07, 02:38:00,VALID,918.018,VALID,0,VALID,100,VALID,-0.0339617,VALID,19.0622,VALID,163,VALID,0.5087,
2008-01-07, 02:39:00,VALID,918.016,VALID,0,VALID,100,VALID,-0.0509425,VALID,19.0425,VALID,161,VALID,0.448438,
2008-01-07, 02:40:00,VALID,918.02,VALID,0,VALID,100,VALID,0,VALID,19.0263,VALID,160,VALID,0.353743,
2008-01-07, 02:41:00,VALID,918.014,VALID,0,VALID,100,VALID,-0.0169808,VALID,19.0198,VALID,159,VALID,0,
2008-01-07, 02:42:00,VALID,917.993,VALID,0,VALID,100,VALID,0,VALID,19.0298,VALID,158,VALID,0,
2008-01-07, 02:43:00,VALID,917.982,VALID,0,VALID,100,VALID,-0.0339617,VALID,19.0171,VALID,140,VALID,0,
2008-01-07, 02:44:00,VALID,917.955,VALID,0,VALID,100,VALID,-0.0339617,VALID,18.9811,VALID,127,VALID,0,
2008-01-07, 02:45:00,VALID,917.942,VALID,0,VALID,100,VALID,-0.0339617,VALID,18.9485,VALID,118,VALID,0,
2008-01-07, 02:46:00,VALID,917.943,VALID,0,VALID,100,VALID,-0.0169808,VALID,18.9322,VALID,112,VALID,0.584032,
2008-01-07, 02:47:00,VALID,917.934,VALID,0,VALID,100,VALID,-0.0679233,VALID,18.9225,VALID,110,VALID,0.726004,
2008-01-07, 02:48:00,VALID,917.929,VALID,0,VALID,100,VALID,0,VALID,18.9128,VALID,115,VALID,0.865104,
2008-01-07, 02:49:00,VALID,917.919,VALID,0,VALID,100,VALID,-0.0169808,VALID,18.8831,VALID,120,VALID,1.06517,
2008-01-07, 02:50:00,VALID,917.915,VALID,0,VALID,100,VALID,-0.0339617,VALID,18.8674,VALID,119,VALID,0.837462,
2008-01-07, 02:51:00,VALID,917.894,VALID,0,VALID,100,VALID,-0.0169808,VALID,18.828,VALID,124,VALID,0.95994,
2008-01-07, 02:52:00,VALID,917.885,VALID,0,VALID,100,VALID,0,VALID,18.8152,VALID,125,VALID,0.814215,
2008-01-07, 02:53:00,VALID,917.879,VALID,0,VALID,100,VALID,0.0169808,VALID,18.799,VALID,131,VALID,0.853849,
2008-01-07, 02:54:00,VALID,917.863,VALID,0,VALID,100,VALID,0,VALID,18.7893,VALID,134,VALID,1.01653,
2008-01-07, 02:55:00,VALID,917.863,VALID,0,VALID,100,VALID,-0.0169808,VALID,18.7796,VALID,136,VALID,0.893601,
2008-01-07, 02:56:00,VALID,917.861,VALID,0,VALID,100,VALID,-0.0169808,VALID,18.7633,VALID,151,VALID,0.526634,
2008-01-07, 02:57:00,VALID,917.873,VALID,0,VALID,100,VALID,-0.0169808,VALID,18.7671,VALID,158,VALID,0.605841,
2008-01-07, 02:58:00,VALID,917.861,VALID,0,VALID,100,VALID,-0.0169808,VALID,18.7765,VALID,153,VALID,0.847973,
2008-01-07, 02:59:00,VALID,917.858,VALID,0,VALID,100,VALID,0,VALID,18.7863,VALID,155,VALID,0.750888,
2008-01-07, 03:00:00,VALID,917.866,VALID,0,VALID,100,VALID,-0.0339617,VALID,18.7763,VALID,154,VALID,0.634201,
2008-01-07, 03:01:00,VALID,917.861,VALID,0,VALID,100,VALID,0,VALID,18.7828,VALID,150,VALID,0.242006,
2008-01-07, 03:02:00,VALID,917.858,VALID,0,VALID,100,VALID,0,VALID,18.783,VALID,161,VALID,0.489648,
2008-01-07, 03:03:00,VALID,917.875,VALID,0,VALID,100,VALID,0,VALID,18.7765,VALID,150,VALID,0.768973,
2008-01-07, 03:04:00,VALID,917.876,VALID,0,VALID,100,VALID,-0.0169808,VALID,18.783,VALID,162,VALID,0.65718,
2008-01-07, 03:05:00,VALID,917.885,VALID,0,VALID,100,VALID,-0.0509425,VALID,18.783,VALID,160,VALID,0.700521,
2008-01-07, 03:06:00,VALID,917.859,VALID,0,VALID,100,VALID,-0.0339617,VALID,18.7898,VALID,157,VALID,0.80878,
2008-01-07, 03:07:00,VALID,917.877,VALID,0,VALID,100,VALID,-0.0169808,VALID,18.7798,VALID,152,VALID,0.74891,
2008-01-07, 03:08:00,VALID,917.878,VALID,0,VALID,100,VALID,-0.0509425,VALID,18.7828,VALID,149,VALID,0.551897,
2008-01-07, 03:09:00,VALID,917.879,VALID,0,VALID,100,VALID,-0.0169808,VALID,18.7997,VALID,152,VALID,0.791159,
2008-01-07, 03:10:00,VALID,917.877,VALID,0,VALID,100,VALID,-0.0509425,VALID,18.7895,VALID,155,VALID,0.957508,
2008-01-07, 03:11:00,VALID,917.876,VALID,0,VALID,100,VALID,-0.0169808,VALID,18.8,VALID,166,VALID,0.765625,
2008-01-07, 03:12:00,VALID,917.866,VALID,0,VALID,100,VALID,-0.0679233,VALID,18.7872,VALID,147,VALID,0.319336,
2008-01-07, 03:13:00,VALID,917.874,VALID,0,VALID,100,VALID,-0.0849042,VALID,18.7675,VALID,145,VALID,0.529344,
2008-01-07, 03:14:00,VALID,917.867,VALID,0,VALID,100,VALID,-0.0849042,VALID,18.7613,VALID,143,VALID,0.251367,
2008-01-07, 03:15:00,VALID,917.847,VALID,0,VALID,100,VALID,-0.101885,VALID,18.7483,VALID,143,VALID,0.129439,
2008-01-07, 03:16:00,VALID,917.826,VALID,0,VALID,100,VALID,-0.0679233,VALID,18.7386,VALID,141,VALID,0.35103,
2008-01-07, 03:17:00,VALID,917.812,VALID,0,VALID,100,VALID,-0.0509425,VALID,18.7293,VALID,139,VALID,0.846413,
2008-01-07, 03:18:00,VALID,917.807,VALID,0,VALID,100,VALID,-0.0339617,VALID,18.7316,VALID,142,VALID,0.554688,
2008-01-07, 03:19:00,VALID,917.792,VALID,0,VALID,100,VALID,-0.0849042,VALID,18.7381,VALID,142,VALID,0.394792,
2008-01-07, 03:20:00,VALID,917.788,VALID,0,VALID,100,VALID,-0.0509425,VALID,18.7421,VALID,134,VALID,1.23884,
2008-01-07, 03:21:00,VALID,917.785,VALID,0,VALID,100,VALID,-0.0679233,VALID,18.7353,VALID,145,VALID,0.830669,
2008-01-07, 03:22:00,VALID,917.781,VALID,0,VALID,100,VALID,-0.0849042,VALID,18.7546,VALID,147,VALID,0.705611,
2008-01-07, 03:23:00,VALID,917.786,VALID,0,VALID,100,VALID,-0.0679233,VALID,18.7513,VALID,144,VALID,0.417773,
2008-01-07, 03:24:00,VALID,917.782,VALID,0,VALID,100,VALID,-0.0849042,VALID,18.7381,VALID,132,VALID,1.04883,
2008-01-07, 03:25:00,VALID,917.773,VALID,0,VALID,100,VALID,-0.0849042,VALID,18.7293,VALID,141,VALID,1.01067,
2008-01-07, 03:26:00,VALID,917.79,VALID,0,VALID,100,VALID,-0.0849042,VALID,18.7416,VALID,141,VALID,1.02754,
2008-01-07, 03:27:00,VALID,917.795,VALID,0,VALID,100,VALID,-0.101885,VALID,18.794,VALID,139,VALID,0.655134,
2008-01-07, 03:28:00,VALID,917.793,VALID,0,VALID,100,VALID,-0.0509425,VALID,18.8002,VALID,132,VALID,0.779726,
2008-01-07, 03:29:00,VALID,917.781,VALID,0,VALID,100,VALID,-0.0679233,VALID,18.797,VALID,131,VALID,0.90532,
2008-01-07, 03:30:00,VALID,917.772,VALID,0,VALID,100,VALID,-0.0509425,VALID,18.7835,VALID,136,VALID,1.01835,
2008-01-07, 03:31:00,VALID,917.769,VALID,0,VALID,100,VALID,-0.101885,VALID,18.778,VALID,142,VALID,0.847561,
2008-01-07, 03:32:00,VALID,917.756,VALID,0,VALID,100,VALID,-0.0679233,VALID,18.7712,VALID,137,VALID,0.680432,
2008-01-07, 03:33:00,VALID,917.769,VALID,0,VALID,100,VALID,0.0679233,VALID,18.7596,VALID,115,VALID,0.796274,
2008-01-07, 03:34:00,VALID,917.754,VALID,0,VALID,100,VALID,0.0339617,VALID,18.7207,VALID,127,VALID,1.02153,
2008-01-07, 03:35:00,VALID,917.746,VALID,0,VALID,100,VALID,0,VALID,18.7082,VALID,126,VALID,0.890625,
2008-01-07, 03:36:01,VALID,917.73,VALID,0,VALID,100,VALID,0.0169808,VALID,18.7082,VALID,123,VALID,0.938834,
2008-01-07, 03:37:00,VALID,917.733,VALID,0,VALID,100,VALID,0.0509425,VALID,18.7244,VALID,121,VALID,0.911523,
2008-01-07, 03:38:00,VALID,917.734,VALID,0,VALID,100,VALID,0.0339617,VALID,18.7474,VALID,123,VALID,0.819767,
2008-01-07, 03:39:00,VALID,917.738,VALID,0,VALID,100,VALID,0.0169808,VALID,18.7439,VALID,103,VALID,0.634487,
2008-01-07, 03:40:01,VALID,917.744,VALID,0,VALID,100,VALID,0,VALID,18.7177,VALID,103,VALID,0.467221,
2008-01-07, 03:41:01,VALID,917.759,VALID,0,VALID,100,VALID,0.0339617,VALID,18.7017,VALID,103,VALID,0.648065,
2008-01-07, 03:42:01,VALID,917.764,VALID,0,VALID,100,VALID,-0.0169808,VALID,18.7124,VALID,107,VALID,0.827567,
2008-01-07, 03:43:00,VALID,917.776,VALID,0,VALID,100,VALID,-0.0679233,VALID,18.7356,VALID,113,VALID,0.780895,
2008-01-07, 03:44:00,VALID,917.806,VALID,0,VALID,100,VALID,-0.118866,VALID,18.7488,VALID,118,VALID,0.617378,